TimeEDT,TemperatureF,Dew PointF,Humidity,Sea Level PressureIn,VisibilityMPH,Wind Direction,Wind SpeedMPH,Gust SpeedMPH,PrecipitationIn,Events,Conditions,WindDirDegrees,DateUTC
12:15 AM,75.2,73.4,94,30.07,10.0,SSE,9.2,16.1,N/A,,Scattered Clouds,160,2013-07-02 04:15:00
12:35 AM,75.2,71.6,89,30.07,10.0,South,12.7,17.3,N/A,,Clear,170,2013-07-02 04:35:00
12:55 AM,75.2,71.6,89,30.07,10.0,South,11.5,-,N/A,,Partly Cloudy,170,2013-07-02 04:55:00
1:15 AM,73.4,71.6,94,30.07,10.0,South,11.5,20.7,N/A,,Partly Cloudy,170,2013-07-02 05:15:00
1:35 AM,73.4,71.6,94,30.07,10.0,South,10.4,-,N/A,,Mostly Cloudy,170,2013-07-02 05:35:00
1:55 AM,73.4,71.6,94,30.08,10.0,South,8.1,-,N/A,,Overcast,170,2013-07-02 05:55:00
2:15 AM,73.4,71.6,94,30.08,10.0,South,10.4,-,N/A,,Scattered Clouds,170,2013-07-02 06:15:00
2:35 AM,73.4,71.6,94,30.08,10.0,SSE,8.1,-,N/A,,Scattered Clouds,160,2013-07-02 06:35:00
2:55 AM,73.4,71.6,94,30.08,10.0,South,11.5,-,N/A,,Scattered Clouds,170,2013-07-02 06:55:00
3:15 AM,73.4,71.6,94,30.07,10.0,South,10.4,18.4,N/A,,Clear,170,2013-07-02 07:15:00
3:35 AM,73.4,71.6,94,30.08,10.0,SSE,8.1,-,N/A,,Clear,160,2013-07-02 07:35:00
3:55 AM,73.4,71.6,94,30.07,10.0,SSE,5.8,-,N/A,,Clear,160,2013-07-02 07:55:00
4:15 AM,73.4,71.6,94,30.07,10.0,South,5.8,-,N/A,,Clear,170,2013-07-02 08:15:00
4:35 AM,73.4,71.6,94,30.07,10.0,South,5.8,-,N/A,,Clear,170,2013-07-02 08:35:00
4:55 AM,73.4,71.6,94,30.08,10.0,South,9.2,-,N/A,,Mostly Cloudy,170,2013-07-02 08:55:00
5:15 AM,73.4,71.6,94,30.09,10.0,SSE,5.8,-,N/A,,Scattered Clouds,160,2013-07-02 09:15:00
5:35 AM,73.4,71.6,94,30.10,10.0,SSE,6.9,-,N/A,,Clear,150,2013-07-02 09:35:00
5:55 AM,73.4,69.8,88,30.10,10.0,SSE,5.8,-,N/A,,Clear,160,2013-07-02 09:55:00
6:15 AM,73.4,69.8,88,30.11,10.0,SSE,6.9,-,N/A,,Clear,160,2013-07-02 10:15:00
6:35 AM,73.4,69.8,88,30.12,10.0,SSE,5.8,-,N/A,,Clear,160,2013-07-02 10:35:00
6:55 AM,73.4,69.8,88,30.13,10.0,SSE,8.1,-,N/A,,Clear,150,2013-07-02 10:55:00
7:15 AM,73.4,69.8,88,30.13,10.0,South,3.5,-,N/A,,Partly Cloudy,170,2013-07-02 11:15:00
7:35 AM,73.4,71.6,94,30.14,10.0,South,3.5,-,N/A,,Partly Cloudy,170,2013-07-02 11:35:00
7:55 AM,75.2,71.6,89,30.14,10.0,SSE,5.8,-,N/A,,Clear,160,2013-07-02 11:55:00
8:15 AM,75.2,71.6,89,30.15,10.0,SSE,6.9,-,N/A,,Clear,160,2013-07-02 12:15:00
8:35 AM,77.0,71.6,83,30.15,10.0,SSE,8.1,-,N/A,,Clear,160,2013-07-02 12:35:00
8:55 AM,77.0,71.6,83,30.16,10.0,SSE,6.9,-,N/A,,Clear,160,2013-07-02 12:55:00
9:15 AM,78.8,73.4,83,30.16,10.0,SSE,9.2,-,N/A,,Clear,160,2013-07-02 13:15:00
9:35 AM,78.8,73.4,83,30.16,10.0,South,6.9,-,N/A,,Clear,170,2013-07-02 13:35:00
10:15 AM,82.4,73.4,74,30.15,10.0,SSE,15.0,19.6,N/A,,Partly Cloudy,150,2013-07-02 14:15:00
10:35 AM,82.4,75.2,79,30.15,10.0,SSE,10.4,17.3,N/A,,Mostly Cloudy,150,2013-07-02 14:35:00
10:55 AM,84.2,75.2,74,30.15,10.0,SSE,13.8,19.6,N/A,,Mostly Cloudy,160,2013-07-02 14:55:00
11:15 AM,84.2,75.2,74,30.16,10.0,SE,13.8,18.4,N/A,,Scattered Clouds,140,2013-07-02 15:15:00
11:35 AM,84.2,75.2,74,30.16,10.0,SSE,10.4,17.3,N/A,,Scattered Clouds,150,2013-07-02 15:35:00
11:55 AM,86.0,75.2,70,30.16,10.0,SSE,12.7,19.6,N/A,,Scattered Clouds,150,2013-07-02 15:55:00
12:15 PM,84.2,75.2,74,30.16,10.0,SSE,11.5,19.6,N/A,,Scattered Clouds,150,2013-07-02 16:15:00
12:35 PM,86.0,75.2,70,30.16,10.0,SE,13.8,-,N/A,,Scattered Clouds,130,2013-07-02 16:35:00
12:55 PM,86.0,75.2,70,30.16,10.0,SSE,17.3,26.5,N/A,,Scattered Clouds,150,2013-07-02 16:55:00
1:15 PM,86.0,75.2,70,30.16,10.0,South,17.3,24.2,N/A,,Mostly Cloudy,170,2013-07-02 17:15:00
1:35 PM,84.2,73.4,70,30.17,10.0,SSE,16.1,23.0,N/A,,Mostly Cloudy,160,2013-07-02 17:35:00
1:55 PM,84.2,75.2,74,30.17,10.0,SE,19.6,24.2,N/A,,Mostly Cloudy,140,2013-07-02 17:55:00
2:15 PM,87.8,75.2,66,30.17,10.0,SSE,16.1,23.0,N/A,,Mostly Cloudy,150,2013-07-02 18:15:00
2:35 PM,80.6,71.6,74,30.18,10.0,West,10.4,16.1,N/A,,Mostly Cloudy,280,2013-07-02 18:35:00
2:55 PM,75.2,71.6,89,30.19,10.0,WSW,3.5,-,N/A,,Overcast,250,2013-07-02 18:55:00
3:15 PM,77.0,71.6,83,30.19,10.0,West,5.8,-,N/A,,Overcast,260,2013-07-02 19:15:00
3:35 PM,77.0,71.6,83,30.18,10.0,West,3.5,-,N/A,,Mostly Cloudy,270,2013-07-02 19:35:00
3:55 PM,75.2,73.4,94,30.17,8.0,Calm,Calm,-,N/A,,Scattered Clouds,0,2013-07-02 19:55:00
4:15 PM,77.0,73.4,89,30.17,10.0,Calm,Calm,-,N/A,,Partly Cloudy,0,2013-07-02 20:15:00
4:35 PM,80.6,75.2,84,30.17,10.0,Calm,Calm,-,N/A,,Clear,0,2013-07-02 20:35:00
4:55 PM,82.4,75.2,79,30.17,10.0,Calm,Calm,-,N/A,,Partly Cloudy,0,2013-07-02 20:55:00
5:15 PM,82.4,75.2,79,30.16,10.0,Calm,Calm,-,N/A,,Scattered Clouds,0,2013-07-02 21:15:00
5:35 PM,82.4,75.2,79,30.16,10.0,SSE,4.6,-,N/A,,Mostly Cloudy,150,2013-07-02 21:35:00
5:55 PM,82.4,73.4,74,30.16,10.0,SSE,9.2,-,N/A,,Scattered Clouds,160,2013-07-02 21:55:00
6:15 PM,82.4,75.2,79,30.16,10.0,SSE,12.7,18.4,N/A,,Partly Cloudy,160,2013-07-02 22:15:00
6:35 PM,82.4,75.2,79,30.17,10.0,SE,15.0,18.4,N/A,,Partly Cloudy,130,2013-07-02 22:35:00
6:55 PM,82.4,75.2,79,30.17,10.0,SSE,9.2,16.1,N/A,,Scattered Clouds,150,2013-07-02 22:55:00
7:15 PM,82.4,75.2,79,30.18,10.0,SE,9.2,-,N/A,,Mostly Cloudy,140,2013-07-02 23:15:00
7:35 PM,80.6,75.2,84,30.18,10.0,SSE,8.1,-,N/A,,Mostly Cloudy,150,2013-07-02 23:35:00
7:55 PM,80.6,73.4,79,30.18,10.0,SSE,6.9,-,N/A,,Scattered Clouds,150,2013-07-02 23:55:00
8:15 PM,78.8,75.2,89,30.19,10.0,SE,8.1,-,N/A,,Partly Cloudy,140,2013-07-03 00:15:00
8:35 PM,78.8,73.4,83,30.19,10.0,SSE,6.9,-,N/A,,Scattered Clouds,150,2013-07-03 00:35:00
8:55 PM,78.8,73.4,83,30.19,10.0,SE,9.2,-,N/A,,Scattered Clouds,140,2013-07-03 00:55:00
9:15 PM,78.8,73.4,83,30.20,10.0,SE,8.1,-,N/A,,Partly Cloudy,130,2013-07-03 01:15:00
9:35 PM,77.0,73.4,89,30.21,10.0,SSE,5.8,-,N/A,,Clear,150,2013-07-03 01:35:00
9:55 PM,77.0,73.4,89,30.21,10.0,SSE,4.6,-,N/A,,Clear,150,2013-07-03 01:55:00
10:15 PM,77.0,73.4,89,30.22,10.0,SE,8.1,-,N/A,,Clear,140,2013-07-03 02:15:00
10:35 PM,77.0,73.4,89,30.22,10.0,SSE,4.6,-,N/A,,Clear,160,2013-07-03 02:35:00
10:55 PM,77.0,73.4,89,30.22,10.0,SE,3.5,-,N/A,,Clear,140,2013-07-03 02:55:00
11:15 PM,75.2,73.4,94,30.21,10.0,SSE,3.5,-,N/A,,Clear,150,2013-07-03 03:15:00
11:35 PM,75.2,73.4,94,30.22,10.0,SSE,4.6,-,N/A,,Partly Cloudy,160,2013-07-03 03:35:00
11:55 PM,75.2,73.4,94,30.21,10.0,SE,4.6,-,N/A,,Scattered Clouds,140,2013-07-03 03:55:00